DW6632 Weather Reports


time (UTC)temp
C
wind
direction
speed
KPH
gust
KPH
rain 1hr
cm
rain 24hr
cm
rain mn
cm
humidity
%
barometer
mb
20260510161705 22 0 0.0 0.0 0.00 0.00 0.00 55 1009.8
20260510160705 22 13 1.6 4.8 0.00 0.00 0.00 55 1009.9
20260510160205 22 18 1.6 11.3 0.00 0.00 0.00 56 1010.0
20260510154705 22 348 3.2 4.8 0.00 0.00 0.00 55 1010.0
20260510154205 22 254 3.2 4.8 0.00 0.00 0.00 55 1009.9
20260510153704 22 221 3.2 11.3 0.00 0.00 0.00 56 1010.0
20260510153205 22 304 3.2 16.1 0.00 0.00 0.00 55 1009.9
20260510151705 23 271 3.2 20.9 0.00 0.00 0.00 53 1009.9
20260510151205 24 255 12.9 20.9 0.00 0.00 0.00 51 1009.9
20260510150704 24 275 3.2 9.7 0.00 0.00 0.00 48 1009.8
20260510150205 24 353 3.2 4.8 0.00 0.00 0.00 48 1009.8
20260510144705 24 202 1.6 4.8 0.00 0.00 0.00 47 1009.9
20260510144204 23 184 1.6 9.7 0.00 0.00 0.00 47 1010.0
20260510143705 23 172 4.8 9.7 0.00 0.00 0.00 48 1010.2
20260510143205 23 172 4.8 12.9 0.00 0.00 0.00 50 1010.2
20260510141705 25 117 3.2 8.0 0.00 0.00 0.00 46 1010.2
20260510141204 25 171 3.2 11.3 0.00 0.00 0.00 43 1010.3
20260510134705 25 93 3.2 4.8 0.00 0.00 0.00 45 1010.8
20260510134205 25 121 3.2 4.8 0.00 0.00 0.00 44 1010.9
20260510133705 25 160 1.6 4.8 0.00 0.00 0.00 45 1010.9
20260510133204 25 112 3.2 9.7 0.00 0.00 0.00 45 1011.0
20260510131705 24 250 3.2 11.3 0.00 0.00 0.00 40 1011.3
20260510130705 24 258 4.8 9.7 0.00 0.00 0.00 39 1011.4
20260510130205 24 276 8.0 20.9 0.00 0.00 0.00 39 1011.6
20260510124705 24 266 4.8 12.9 0.00 0.00 0.00 39 1011.9
20260510123704 24 271 6.4 11.3 0.00 0.00 0.00 39 1012.0
20260510123204 24 256 3.2 19.3 0.00 0.00 0.00 40 1012.1
20260510121704 24 277 4.8 19.3 0.00 0.10 0.00 40 1012.2
20260510121205 24 249 9.7 16.1 0.00 0.15 0.00 39 1012.3
20260510120204 24 255 6.4 20.9 0.00 0.23 0.00 40 1012.4
20260510114205 23 287 3.2 14.5 0.00 0.46 0.00 41 1012.6
20260510113705 24 256 9.7 16.1 0.00 0.53 0.00 40 1012.7
20260510113205 24 271 8.0 20.9 0.00 0.64 0.00 42 1012.8
20260510111705 23 244 6.4 16.1 0.00 1.30 0.00 43 1012.9
20260510111205 23 226 11.3 16.1 0.00 1.42 0.00 43 1013.0
20260510110705 23 239 8.0 16.1 0.00 1.63 0.00 44 1013.1
20260510104705 22 54 3.2 8.0 0.00 1.85 0.00 51 1013.3
20260510101204 22 86 1.6 4.8 0.00 2.11 0.00 52 1013.8
20260510100705 22 124 3.2 4.8 0.00 2.11 0.00 53 1013.8
20260510094705 21 43 3.2 4.8 0.00 2.24 0.00 55 1014.0
20260510094205 21 261 3.2 9.7 0.00 2.29 0.00 55 1014.0
20260510093704 21 328 3.2 14.5 0.00 2.31 0.00 56 1014.1
20260510093204 20 238 1.6 11.3 0.00 2.46 0.00 56 1014.1
20260510091704 20 279 4.8 9.7 0.00 2.51 0.00 58 1014.2
20260510090704 20 81 0.0 0.0 0.00 2.54 0.00 61 1014.3
20260510090204 20 170 0.0 8.0 0.00 2.59 0.00 62 1014.3
20260510084705 20 332 0.0 0.0 0.00 2.82 0.00 65 1014.4
20260510084205 20 83 0.0 0.0 0.00 2.90 0.00 65 1014.5
20260510083705 20 84 0.0 0.0 0.00 2.97 0.00 66 1014.5
20260510083205 20 83 0.0 0.0 0.00 3.05 0.00 67 1014.7
20260510081704 18 83 0.0 0.0 0.00 3.20 0.00 72 1014.7
20260510081204 18 84 0.0 0.0 0.00 3.25 0.00 73 1014.7
20260510080704 18 34 0.0 0.0 0.00 3.33 0.00 73 1014.7
20260510080205 18 34 0.0 0.0 0.00 3.38 0.00 73 1014.7
20260510074705 17 37 0.0 0.0 0.00 3.61 0.00 75 1014.9
20260510074205 17 37 0.0 0.0 0.00 3.68 0.00 78 1014.9
20260510073704 16 36 0.0 0.0 0.00 3.76 0.00 80 1014.9
20260510073205 16 36 0.0 0.0 0.00 3.86 0.00 79 1015.0
20260510071706 15 5 0.0 0.0 0.00 4.09 0.00 86 1015.0
20260510071205 15 5 0.0 3.2 0.00 4.17 0.00 87 1015.0
20260510070705 15 5 3.2 4.8 0.00 4.19 0.00 87 1014.9
20260510064205 13 311 0.0 0.0 0.00 4.22 0.00 89 1014.7
20260510063704 13 311 0.0 0.0 0.00 4.22 0.00 89 1014.7
20260510061705 13 311 0.0 0.0 0.00 4.22 0.00 89 1014.5
20260510061205 13 311 0.0 0.0 0.00 4.22 0.00 89 1014.5
20260510060705 13 311 0.0 0.0 0.00 4.22 0.00 88 1014.5
20260510060205 13 311 0.0 3.2 0.00 4.22 0.00 88 1014.5
20260510054705 13 254 0.0 0.0 0.00 4.22 0.00 88 1014.4
20260510054204 13 249 0.0 0.0 0.00 4.22 0.00 88 1014.3
20260510053705 13 242 0.0 1.6 0.00 4.22 0.00 88 1014.3
20260510053204 13 242 3.2 4.8 0.00 4.22 0.00 89 1014.2
20260510051705 13 134 0.0 0.0 0.00 4.22 0.00 88 1014.1
20260510050704 13 134 0.0 3.2 0.00 4.22 0.00 88 1014.0
20260510044704 13 146 3.2 4.8 0.00 4.22 0.00 88 1013.9
20260510044205 13 324 1.6 3.2 0.00 4.22 0.00 88 1013.9
20260510043704 13 300 1.6 4.8 0.00 4.22 0.00 88 1013.9
20260510043204 13 274 3.2 8.0 0.00 4.22 0.00 89 1014.0
20260510041704 13 240 4.8 9.7 0.00 4.22 0.00 91 1013.9
20260510041205 13 195 3.2 9.7 0.00 4.22 0.00 91 1013.9
20260510040204 13 54 0.0 0.0 0.00 4.22 0.00 91 1014.0
20260510034704 13 46 0.0 0.0 0.00 4.22 0.00 91 1013.9
20260510034204 13 46 0.0 0.0 0.00 4.22 0.00 91 1013.9
20260510033704 13 46 0.0 0.0 0.00 4.22 0.00 91 1013.8
20260510033204 13 46 0.0 0.0 0.00 4.22 0.00 91 1013.8
20260510031705 13 46 0.0 0.0 0.00 4.22 0.00 91 1013.8
20260510031204 13 46 0.0 0.0 0.00 4.22 0.00 91 1013.6
20260510030704 13 46 1.6 3.2 0.00 4.22 0.00 91 1013.6
20260510030204 13 46 3.2 4.8 0.00 4.22 0.00 91 1013.5
20260510024704 13 159 0.0 0.0 0.00 4.22 0.00 91 1013.6
20260510023705 13 159 0.0 0.0 0.00 4.22 0.00 91 1013.6
20260510023205 13 159 0.0 3.2 0.00 4.22 0.00 90 1013.6
20260510021705 13 173 0.0 3.2 0.00 4.22 0.00 90 1013.6
20260510021204 13 221 0.0 1.6 0.00 4.22 0.00 90 1013.6
20260510020705 13 194 0.0 3.2 0.00 4.22 0.00 90 1013.6
20260510020204 13 145 0.0 0.0 0.00 4.22 0.00 90 1013.6
20260510014205 13 241 0.0 0.0 0.00 4.22 0.00 89 1013.5
20260510013705 13 241 0.0 0.0 0.00 4.22 0.00 89 1013.6
20260510013205 13 241 0.0 0.0 0.00 4.22 0.00 89 1013.6
20260510011705 13 240 0.0 0.0 0.00 4.22 0.00 88 1013.7
20260510011205 14 240 0.0 0.0 0.00 4.22 0.00 88 1013.8
20260510010704 14 240 0.0 0.0 0.00 4.22 0.00 88 1013.8
20260510010204 14 241 0.0 0.0 0.00 4.22 0.00 87 1013.8
20260510004705 14 241 0.0 0.0 0.00 4.22 0.00 87 1014.0
20260510004204 14 241 0.0 0.0 0.00 4.22 0.00 87 1014.1
20260510003704 14 241 0.0 0.0 0.00 4.22 0.00 87 1014.1
20260510003204 14 166 0.0 3.2 0.00 4.22 0.00 87 1014.1
20260510001705 14 271 1.6 4.8 0.00 4.22 0.00 87 1014.4
20260510000704 14 300 0.0 0.0 0.00 4.22 0.00 87 1014.5
20260510000205 14 301 0.0 0.0 0.00 4.22 0.00 87 1014.4
20260509234705 15 325 0.0 0.0 0.00 4.22 0.00 86 1014.4
20260509234204 15 47 0.0 0.0 0.00 4.22 0.00 86 1014.4
20260509233705 15 347 0.0 0.0 0.00 4.22 0.00 85 1014.4
20260509233205 15 329 0.0 0.0 0.00 4.22 0.00 85 1014.4
20260509231205 15 322 0.0 4.8 0.00 4.22 0.00 84 1014.6
20260509230704 15 330 0.0 3.2 0.00 4.22 0.00 84 1014.6
20260509230204 15 330 0.0 8.0 0.00 4.22 0.00 84 1014.5
20260509224704 15 5 3.2 4.8 0.00 4.22 0.00 81 1014.5
20260509223705 15 181 3.2 4.8 0.00 4.22 0.00 82 1014.5
20260509223204 15 154 3.2 4.8 0.00 4.22 0.00 83 1014.5
20260509221204 15 206 4.8 8.0 0.00 4.22 0.00 87 1014.8
20260509220705 15 261 4.8 4.8 0.00 4.22 0.00 87 1014.9
20260509220204 15 279 4.8 14.5 0.00 4.22 0.00 87 1015.0
20260509214705 16 236 1.6 4.8 0.00 4.22 4.22 87 1014.8
20260509214204 16 200 0.0 0.0 0.00 4.22 4.22 87 1014.6
20260509213704 16 199 0.0 0.0 0.00 4.22 4.22 87 1014.5
20260509213204 16 199 0.0 4.8 0.00 4.22 4.22 87 1014.3
20260509211705 16 328 0.0 4.8 0.00 4.22 4.22 87 1014.2
20260509211205 16 257 1.6 4.8 0.00 4.22 4.22 87 1014.1
20260509210704 16 224 3.2 8.0 0.00 4.22 4.22 87 1013.8
20260509210204 16 144 0.0 3.2 0.00 4.22 4.22 87 1013.8
20260509204705 16 197 1.6 4.8 0.00 4.22 4.22 87 1014.4
20260509203705 16 246 4.8 12.9 0.00 4.22 4.22 86 1014.8
20260509201704 16 255 4.8 4.8 0.00 4.22 4.22 86 1014.2
20260509201205 16 318 0.0 0.0 0.00 4.22 4.22 86 1013.9
20260509200204 16 318 0.0 4.8 0.00 4.22 4.22 85 1013.8
20260509194704 16 346 0.0 0.0 0.00 4.22 4.22 85 1013.5
20260509193705 16 348 0.0 0.0 0.00 4.22 4.22 84 1013.4
20260509191705 16 42 0.0 0.0 0.00 4.22 4.22 82 1012.8
20260509190705 17 42 0.0 0.0 0.00 4.22 4.22 81 1012.5
20260509190205 17 42 0.0 0.0 0.00 4.22 4.22 80 1012.5
20260509184704 17 40 0.0 0.0 0.00 4.22 4.22 77 1012.5
20260509184205 17 40 0.0 0.0 0.00 4.22 4.22 76 1012.4
20260509183704 18 40 0.0 0.0 0.00 4.22 4.22 75 1012.2
20260509183205 18 40 0.0 0.0 0.00 4.22 4.22 74 1012.2
20260509181704 18 40 0.0 0.0 0.00 4.22 4.22 69 1012.0
20260509181205 18 39 0.0 0.0 0.00 4.22 4.22 69 1011.8
20260509180704 18 39 0.0 0.0 0.00 4.22 4.22 68 1011.7
20260509180204 18 38 0.0 0.0 0.00 4.22 4.22 69 1011.6
20260509174705 18 38 0.0 0.0 0.00 4.22 4.22 69 1011.6
20260509173704 18 13 3.2 8.0 0.00 4.22 4.22 71 1011.6
20260509171704 18 5 3.2 4.8 0.00 4.22 4.22 68 1011.7
20260509171205 18 5 3.2 4.8 0.00 4.22 4.22 67 1011.7
20260509170705 18 315 1.6 4.8 0.00 4.22 4.22 67 1011.8
20260509170204 18 313 1.6 4.8 0.00 4.22 4.22 66 1011.8
20260509164704 19 312 3.2 4.8 0.00 4.22 4.22 65 1011.7
20260509163704 19 0 1.6 4.8 0.00 4.22 4.22 65 1011.7
20260509163204 19 352 1.6 8.0 0.00 4.22 4.22 64 1011.7